CW5624 Weather Reports


Display with metric or nautical units.
time (UTC)temp
F
wind
direction
speed
MPH
gust
MPH
rain 1hr
in
rain 24hr
in
rain mn
in
humidity
%
barometer
mb
20260507154905 60 279 1.0 7.0 0.00 0.00 0.14 60 1006.9
20260507153905 60 11 2.0 3.0 0.00 0.00 0.14 63 1006.9
20260507152905 60 30 0.0 5.0 0.00 0.00 0.14 65 1006.9
20260507151905 58 5 1.0 5.0 0.00 0.00 0.14 66 1007.0
20260507150905 58 10 2.0 10.0 0.00 0.00 0.14 64 1007.1
20260507145905 59 343 3.0 6.0 0.00 0.00 0.14 64 1007.1
20260507144905 59 5 2.0 4.0 0.00 0.00 0.14 64 1007.2
20260507143906 59 292 0.0 2.0 0.00 0.00 0.14 66 1007.3
20260507142905 59 232 0.0 3.0 0.00 0.00 0.14 66 1007.5
20260507141905 58 324 3.0 4.0 0.00 0.00 0.14 67 1007.5
20260507140905 57 355 0.0 3.0 0.00 0.00 0.14 68 1007.6
20260507135906 56 347 0.0 2.0 0.00 0.00 0.14 68 1007.6
20260507134905 56 355 1.0 3.0 0.00 0.00 0.14 68 1007.5
20260507133906 55 5 0.0 4.0 0.00 0.00 0.14 66 1007.6
20260507132905 54 263 0.0 3.0 0.00 0.00 0.14 57 1007.6
20260507131906 53 32 1.0 3.0 0.00 0.00 0.14 45 1007.7
20260507130905 51 326 0.0 4.0 0.00 0.00 0.14 8 1007.9
20260507125905 49 223 0.0 5.0 0.00 0.00 0.14 100 1007.9
20260507124905 48 19 1.0 5.0 0.00 0.00 0.14 100 1008.0
20260507123905 47 355 1.0 3.0 0.00 0.00 0.14 100 1008.1
20260507122906 46 355 0.0 3.0 0.00 0.00 0.14 100 1008.1
20260507121906 46 351 0.0 1.0 0.00 0.00 0.14 100 1008.0
20260507120905 46 351 0.0 3.0 0.00 0.00 0.14 100 1008.0
20260507115905 45 346 0.0 0.0 0.00 0.00 0.14 100 1007.8
20260507114905 45 346 0.0 0.0 0.00 0.00 0.14 100 1007.9
20260507113906 45 346 0.0 1.0 0.00 0.00 0.14 100 1007.9
20260507112907 45 346 0.0 0.0 0.00 0.00 0.14 100 1007.8
20260507111906 45 346 0.0 0.0 0.00 0.00 0.14 100 1007.7
20260507110905 45 346 0.0 0.0 0.00 0.00 0.14 100 1007.8
20260507105905 45 346 0.0 0.0 0.00 0.00 0.14 100 1007.6
20260507104906 45 346 0.0 0.0 0.00 0.00 0.14 100 1007.5
20260507103905 45 346 0.0 0.0 0.00 0.00 0.14 100 1007.8
20260507102906 45 346 0.0 0.0 0.00 0.00 0.14 100 1007.8
20260507101906 45 346 0.0 0.0 0.00 0.00 0.14 100 1007.5
20260507100907 45 346 0.0 0.0 0.00 0.00 0.13 100 1007.3
20260507095906 45 346 0.0 0.0 0.00 0.00 0.13 100 1007.5
20260507094906 45 346 0.0 0.0 0.00 0.00 0.13 100 1007.1
20260507093906 46 346 0.0 1.0 0.00 0.00 0.12 100 1007.1
20260507092906 46 346 0.0 0.0 0.00 0.00 0.10 100 1007.3
20260507091906 46 346 0.0 4.0 0.00 0.00 0.09 100 1006.8
20260507090907 47 350 1.0 2.0 0.00 0.00 0.08 100 1007.0
20260507085907 47 346 0.0 1.0 0.00 0.00 0.06 100 1007.3
20260507084906 48 346 0.0 2.0 0.00 0.00 0.05 2 1007.2
20260507083906 48 331 0.0 3.0 0.00 0.00 0.03 6 1007.4
20260507082906 49 22 0.0 2.0 0.00 0.00 0.03 11 1006.9
20260507081906 50 22 1.0 4.0 0.00 0.00 0.03 17 1006.9
20260507080906 50 15 0.0 2.0 0.00 0.00 0.01 19 1006.9
20260507075906 51 13 0.0 2.0 0.00 0.00 0.01 23 1007.3
20260507074906 52 13 0.0 2.0 0.00 0.00 0.01 32 1006.8
20260507073906 53 9 0.0 3.0 0.00 0.00 0.01 36 1006.7
20260507072906 53 355 0.0 3.0 0.00 0.00 0.00 36 1006.7
20260507071906 54 355 0.0 2.0 0.00 0.00 0.00 31 1006.1
20260507070906 54 355 0.0 6.0 0.00 0.00 0.00 30 1005.9
20260507065907 54 5 0.0 2.0 0.00 0.00 0.00 25 1006.0
20260507064906 54 9 0.0 2.0 0.00 0.00 0.00 21 1005.9
20260507063906 54 9 0.0 3.0 0.00 0.00 0.00 16 1006.0
20260507062906 54 5 0.0 2.0 0.00 0.00 0.00 12 1006.3
20260507061906 54 5 0.0 4.0 0.00 0.00 0.00 13 1006.0
20260507060906 55 355 0.0 3.0 0.00 0.00 0.00 13 1005.8
20260507055906 55 331 1.0 4.0 0.00 0.00 0.00 13 1006.0
20260507054906 55 9 1.0 2.0 0.00 0.00 0.00 5 1006.1
20260507053906 54 5 0.0 2.0 0.00 0.00 0.00 100 1006.3
20260507052906 54 360 0.0 5.0 0.00 0.00 0.00 100 1006.4
20260507051907 54 355 0.0 3.0 0.00 0.00 0.00 100 1006.4
20260507050906 54 350 0.0 4.0 0.00 0.00 0.00 100 1006.0
20260507045906 54 5 0.0 4.0 0.00 0.00 0.00 100 1006.1
20260507044906 54 5 0.0 6.0 0.00 0.00 0.00 100 1006.2
20260507043906 55 38 0.0 3.0 0.00 0.00 0.00 100 1006.2
20260507042906 55 173 0.0 2.0 0.00 0.00 0.00 100 1006.0
20260507041907 55 176 0.0 4.0 0.00 0.00 0.00 100 1006.0
20260507040906 55 87 0.0 0.0 0.00 0.00 0.00 100 1006.1
20260507035906 55 88 0.0 2.0 0.00 0.00 0.07 100 1006.3
20260507034906 55 115 0.0 0.0 0.00 0.00 0.07 100 1006.4
20260507033906 55 115 0.0 1.0 0.00 0.00 0.07 100 1006.1
20260507032906 55 115 0.0 2.0 0.00 0.00 0.07 100 1005.9
20260507031906 55 120 0.0 4.0 0.00 0.00 0.07 100 1005.8
20260507030906 55 342 0.0 2.0 0.00 0.00 0.07 100 1005.7
20260507025907 55 338 0.0 2.0 0.00 0.00 0.07 100 1005.5
20260507024906 55 80 0.0 2.0 0.00 0.00 0.07 100 1005.5
20260507023907 55 75 0.0 3.0 0.00 0.00 0.07 100 1005.7
20260507022908 54 86 0.0 3.0 0.00 0.00 0.07 100 1005.8
20260507021906 54 113 0.0 3.0 0.00 0.00 0.07 100 1005.6
20260507020908 54 130 0.0 2.0 0.00 0.00 0.07 100 1005.6
20260507015906 54 130 0.0 1.0 0.00 0.00 0.07 100 1005.7
20260507014906 54 130 0.0 1.0 0.00 0.00 0.07 100 1005.5
20260507013906 54 128 0.0 3.0 0.00 0.00 0.07 100 1005.7
20260507012906 54 134 0.0 2.0 0.00 0.00 0.07 100 1005.8
20260507011906 54 136 0.0 3.0 0.00 0.00 0.07 100 1005.9
20260507010907 54 126 1.0 5.0 0.00 0.00 0.07 100 1006.1
20260507005906 54 26 1.0 1.0 0.00 0.00 0.07 100 1006.2
20260507004907 54 22 0.0 2.0 0.00 0.00 0.07 100 1006.2
20260507003907 54 23 0.0 2.0 0.00 0.00 0.07 100 1006.2
20260507002907 54 24 1.0 2.0 0.00 0.00 0.07 100 1006.0
20260507001907 54 242 2.0 5.0 0.00 0.00 0.07 100 1006.0
20260507000907 55 122 0.0 5.0 0.00 0.00 0.07 100 1005.9
20260506235907 55 209 0.0 3.0 0.00 0.00 0.07 100 1005.6
20260506234907 55 24 0.0 5.0 0.00 0.00 0.07 100 1005.7
20260506233907 55 184 0.0 4.0 0.00 0.00 0.06 100 1005.7
20260506232908 56 127 0.0 2.0 0.00 0.00 0.06 100 1005.6
20260506231906 56 53 0.0 3.0 0.00 0.00 0.06 100 1005.6
20260506230907 56 115 0.0 3.0 0.00 0.00 0.05 100 1005.7
20260506225907 56 175 0.0 4.0 0.00 0.00 0.04 100 1005.6
20260506224907 56 205 1.0 3.0 0.00 0.00 0.04 100 1005.6
20260506223907 56 129 1.0 2.0 0.00 0.00 0.04 100 1005.8
20260506222907 57 42 0.0 3.0 0.00 0.00 0.04 100 1005.8
20260506221907 57 28 0.0 4.0 0.00 0.00 0.04 100 1006.1
20260506220907 57 127 0.0 3.0 0.00 0.00 0.04 100 1006.0
20260506215907 58 81 2.0 5.0 0.00 0.00 0.04 100 1006.1
20260506214907 58 222 0.0 6.0 0.00 0.00 0.04 100 1006.1
20260506213907 59 150 0.0 4.0 0.00 0.00 0.04 100 1006.3
20260506212907 59 148 2.0 4.0 0.00 0.00 0.03 100 1006.4
20260506211907 60 51 5.0 5.0 0.00 0.00 0.02 100 1006.3
20260506210907 60 26 0.0 4.0 0.00 0.00 0.02 100 1006.4
20260506205907 60 202 0.0 4.0 0.00 0.00 0.02 100 1006.5
20260506204907 60 99 0.0 3.0 0.00 0.00 0.02 100 1006.6
20260506203907 60 360 1.0 4.0 0.00 0.00 0.02 3 1006.7
20260506202907 60 49 0.0 6.0 0.00 0.00 0.02 7 1006.6
20260506201907 61 30 1.0 8.0 0.00 0.00 0.02 8 1006.7
20260506200907 61 329 2.0 4.0 0.00 0.00 0.02 13 1006.6
20260506195907 62 220 0.0 4.0 0.00 0.00 0.02 21 1006.5
20260506194907 63 195 0.0 6.0 0.00 0.00 0.02 27 1006.4
20260506193907 64 116 0.0 5.0 0.00 0.00 0.01 38 1006.7
20260506192907 65 169 0.0 6.0 0.00 0.00 0.00 46 1006.9
20260506191907 66 92 0.0 5.0 0.00 0.00 0.00 54 1006.8
20260506190907 68 126 0.0 4.0 0.00 0.00 0.00 62 1006.7
20260506185908 68 159 0.0 3.0 0.00 0.00 0.00 65 1006.6
20260506184908 69 214 1.0 5.0 0.00 0.00 0.00 65 1006.7
20260506183907 69 205 0.0 5.0 0.00 0.00 0.00 65 1006.7
20260506182907 70 267 2.0 7.0 0.00 0.00 0.00 64 1006.8
20260506181907 70 22 1.0 8.0 0.00 0.00 0.00 63 1006.9
20260506180907 72 178 5.0 7.0 0.00 0.00 0.00 61 1006.9
20260506175907 73 186 2.0 6.0 0.00 0.00 0.00 60 1007.0
20260506174907 73 39 1.0 5.0 0.00 0.00 0.00 60 1007.0
20260506173907 73 223 2.0 9.0 0.00 0.00 0.00 60 1007.3
20260506172907 72 153 3.0 9.0 0.00 0.00 0.00 61 1007.3
20260506171907 72 69 1.0 12.0 0.00 0.00 0.00 60 1007.3
20260506170907 72 260 2.0 8.0 0.00 0.00 0.00 62 1007.2
20260506165907 71 175 4.0 10.0 0.00 0.00 0.00 64 1007.4
20260506164907 72 276 0.0 7.0 0.00 0.00 0.00 63 1007.6
20260506163908 72 256 1.0 7.0 0.00 0.00 0.00 62 1007.7
20260506162907 72 107 0.0 7.0 0.00 0.00 0.00 63 1007.7
20260506161907 72 282 2.0 7.0 0.00 0.00 0.00 62 1007.9
20260506160907 72 248 5.0 6.0 0.00 0.00 0.00 63 1008.2
20260506155907 72 208 3.0 7.0 0.00 0.00 0.00 63 1008.4